Harare, Zimbabwe

4:12 PM CAT on December 05, 2016 (GMT +0200)
Harare

Weather History for 67775 - November, 2012

Change the Weather History Date:

Wednesday, November 14, 2012

  Actual Average Record
Temperature  
Mean Temperature 76 °F -  
Max Temperature 87 °F - - ()
Min Temperature 66 °F - - ()
Cooling Degree Days 12    
Growing Degree Days 26 (Base 50)    
Moisture  
Dew Point 52 °F    
Average Humidity 42    
Maximum Humidity 64    
Minimum Humidity 22    
Precipitation  
Precipitation 0.00 in - - ()
Sea Level Pressure  
Sea Level Pressure 30.13 in    
Wind  
Wind Speed 8 mph ()    
Max Wind Speed 15 mph    
Max Gust Speed -    
Visibility 10.8 miles    
Events      
T = Trace of Precipitation, MM = Missing Value Source: Averaged Metar Reports

Daily Weather History Graph

Daily Weather History Graph

Search for Another Location

Airport or City:

Trip Planner

Search our weather history database for the weather conditions in past years. The results will help you decide how hot, cold, wet, or windy it might be!

Date:

Astronomy

Nov. 14, 2012 Rise Set
Actual Time 5:11 AM CAT 6:08 PM CAT
Civil Twilight 4:48 AM CAT 6:31 PM CAT
Nautical Twilight 4:21 AM CAT 6:59 PM CAT
Astronomical Twilight 3:53 AM CAT 7:27 PM CAT
Moon 5:27 AM CAT (11/14) 6:52 PM CAT (11/14)
Length of Visible Light 13h 43m
Length of Day
12h 56m
New Moon, 0% of the Moon is Illuminated
Nov 14
New Moon
Nov 20
First Quarter
Nov 28
Full
Dec 6
Last Quarter
Dec 13
New

Hourly Weather History & Observations

Time (CAT) Temp. Heat Index Dew Point Humidity Pressure Visibility Wind Dir Wind Speed Gust Speed Precip Events Conditions
2:00 AM 68 °F - 50 °F 41%  in 16 mi East 5.8 mph - -  
2:00 AM 68.0 °F - 50.0 °F 52% 30.09 in - East 5.8 mph - N/A   Clear
3:00 AM 68.0 °F - 50.0 °F 52% 30.09 in - East 11.5 mph - N/A   Clear
5:00 AM 66.2 °F - 53.6 °F 64% 30.09 in - East 9.2 mph - N/A   Clear
6:00 AM 68.0 °F - 50.0 °F 52% 30.12 in - East 8.1 mph - N/A   Clear
7:00 AM 73.4 °F - 48.2 °F 41% 30.15 in - East 12.7 mph - N/A   Clear
8:00 AM 78 °F - 47 °F 22%  in 12 mi East 13.8 mph - -   Haze
8:00 AM 77.0 °F - 46.4 °F 34% 30.15 in - East 13.8 mph - N/A   Clear
9:00 AM 80.6 °F - 48.2 °F 32% 30.18 in - ENE 15.0 mph - N/A   Clear
10:00 AM 82.4 °F - 48.2 °F 30% 30.18 in 6.2 mi ENE 15.0 mph - N/A   Partly Cloudy
11:00 AM 84.2 °F - 50.0 °F 30% 30.18 in - ENE 6.9 mph - N/A   Clear
12:00 PM 82.4 °F - 51.8 °F 35% 30.15 in - ENE 8.1 mph - N/A   Clear
1:00 PM 84.2 °F - 51.8 °F 33% 30.12 in 6.2 mi South 4.6 mph - N/A   Mostly Cloudy
2:00 PM 85 °F - 53 °F 23%  in 19 mi SSE 8.1 mph - -   Partly Cloudy
4:00 PM 84.2 °F 82.8 °F 53.6 °F 35% 30.09 in 6.2 mi SSE 4.6 mph - N/A   Mostly Cloudy
5:00 PM 82.4 °F - 51.8 °F 35% 30.09 in 6.2 mi ESE 10.4 mph - N/A   Mostly Cloudy
6:00 PM 80.6 °F 80.3 °F 53.6 °F 39% 30.09 in 6.2 mi East 8.1 mph - N/A   Mostly Cloudy
7:00 PM 77.0 °F - 55.4 °F 47% 30.12 in - East 5.8 mph - N/A   Clear
8:00 PM 76 °F - 55 °F 38%  in 19 mi East 10.4 mph - -   Partly Cloudy
8:00 PM 75.2 °F - 55.4 °F 50% 30.12 in - East 10.4 mph - N/A   Clear
9:00 PM 73.4 °F - 55.4 °F 53% 30.15 in - East 8.1 mph - N/A   Clear
10:00 PM 71.6 °F - 57.2 °F 60% 30.15 in - East 9.2 mph - N/A   Clear
11:00 PM 69.8 °F - 55.4 °F 60% 30.18 in - ESE 8.1 mph - N/A   Clear